Weather History for Wejh, Saudi Arabia

Change the Weather History Date:

Monday, January 14, 2013

  Actual Average Record
Temperature  
Mean Temperature 70 °F -  
Max Temperature 84 °F 73 °F 84 °F (2013)
Min Temperature 57 °F 56 °F 50 °F (1998)
Cooling Degree Days 6    
Growing Degree Days 20 (Base 50)    
Moisture  
Dew Point 47 °F    
Average Humidity 43    
Maximum Humidity 61    
Minimum Humidity 14    
Precipitation  
Precipitation 0.00 in - - ()
Sea Level Pressure  
Sea Level Pressure 30.04 in    
Wind  
Wind Speed 8 mph ()    
Max Wind Speed 20 mph    
Max Gust Speed -    
Visibility 5.1 miles    
Events      
Averages and records for this station are not official NWS values.
T = Trace of Precipitation, MM = Missing Value Source: Averaged Metar Reports

Daily Weather History Graph

Daily Weather History Graph

Search for Another Location

Airport:

Trip Planner

Search our weather history database for the weather conditions in past years. The results will help you decide how hot, cold, wet, or windy it might be!

Date:

Astronomy

Jan. 14, 2013 Rise Set
Actual Time 7:23 AM AST 6:03 PM AST
Civil Twilight 6:58 AM AST 6:28 PM AST
Nautical Twilight 6:30 AM AST 6:56 PM AST
Astronomical Twilight 6:02 AM AST 7:24 PM AST
Moon 9:05 AM AST (1/14) 9:02 PM AST (1/14)
Length of Visible Light 11h 29m
Length of Day
10h 40m
Waxing Crescent, 9% of the Moon is Illuminated
Jan 14
Waxing Crescent
Jan 19
First Quarter
Jan 27
Full
Feb 3
Last Quarter
Feb 10
New

Hourly Weather History & Observations

Time (AST) Temp. Heat Index Dew Point Humidity Pressure Visibility Wind Dir Wind Speed Gust Speed Precip Events Conditions
12:00 AM 68 °F - 30 °F 14% 30.03 in 6 mi NNE 4.6 mph - -  
12:00 AM 68.0 °F - 30.2 °F 24% 30.04 in - NNE 4.6 mph - N/A   Clear
1:00 AM 68.0 °F - 28.4 °F 23% 30.04 in - North 3.5 mph - N/A   Clear
2:00 AM 62.6 °F - 48.2 °F 59% 30.04 in - NNE 4.6 mph - N/A   Clear
3:00 AM 61 °F - 46 °F 48% 30.04 in 6 mi NNE 6.9 mph - -  
3:00 AM 60.8 °F - 46.4 °F 59% 30.04 in - NNE 6.9 mph - N/A   Clear
4:00 AM 60.8 °F - 44.6 °F 55% 30.04 in - NNE 6.9 mph - N/A   Clear
5:00 AM 60.8 °F - 42.8 °F 52% 30.04 in - North 5.8 mph - N/A   Clear
6:00 AM 61 °F - 45 °F 44% 30.04 in 6 mi North 5.8 mph - -  
6:00 AM 60.8 °F - 44.6 °F 55% 30.04 in - North 5.8 mph - N/A   Clear
7:00 AM 60.8 °F - 41.0 °F 48% 30.04 in - North 8.1 mph - N/A   Clear
8:00 AM 60.8 °F - 39.2 °F 45% 30.06 in - North 8.1 mph - N/A   Clear
9:00 AM 64 °F - 39 °F 28% 30.09 in 5 mi NNE 6.9 mph - -   Widespread Dust
9:00 AM 64.4 °F - 39.2 °F 40% 30.09 in 5.0 mi NNE 6.9 mph - N/A   Clear
10:00 AM 69.8 °F - 41.0 °F 35% 30.09 in 5.0 mi NNE 4.6 mph - N/A   Clear
11:00 AM 80.6 °F - 42.8 °F 26% 30.04 in 5.0 mi ENE 8.1 mph - N/A   Clear
12:00 PM 81 °F - 43 °F 16% 30.05 in 5 mi ENE 8.1 mph - -   Widespread Dust
1:00 PM 82.4 °F - 44.6 °F 26% 30.01 in 5.0 mi East 6.9 mph - N/A   Clear
2:00 PM 84.2 °F - 42.8 °F 23% 30.01 in 5.0 mi NE 4.6 mph - N/A   Clear
3:00 PM 80 °F - 55 °F 32% 30.02 in 5 mi WNW 16.1 mph - -   Blowing Sand
3:00 PM 80.6 °F 80.5 °F 55.4 °F 42% 30.01 in 5.0 mi WNW 16.1 mph - N/A   Clear
4:00 PM 80.6 °F 80.5 °F 55.4 °F 42% 30.01 in 5.0 mi WNW 13.8 mph - N/A   Clear
5:00 PM 78.8 °F - 53.6 °F 42% 30.01 in 5.0 mi NW 18.4 mph - N/A   Clear
6:00 PM 75 °F - 57 °F 44% 30.03 in 5 mi NW 18.4 mph - -   Blowing Sand
6:00 PM 75.2 °F - 57.2 °F 53% 30.04 in 5.0 mi NW 18.4 mph - N/A   Clear
7:00 PM 73.4 °F - 59.0 °F 61% 30.04 in 5.0 mi NW 19.6 mph - N/A   Clear
8:00 PM 73.4 °F - 57.2 °F 57% 30.04 in 5.0 mi NW 13.8 mph - N/A   Clear
9:00 PM 72 °F - 57 °F 50% 30.05 in 5 mi NW 16.1 mph - -   Blowing Sand
9:00 PM 71.6 °F - 57.2 °F 60% 30.04 in 5.0 mi NW 16.1 mph - N/A   Widespread Dust
10:00 PM 68.0 °F - 51.8 °F 56% 30.04 in 5.0 mi NW 18.4 mph - N/A   Widespread Dust
11:00 PM 66.2 °F - 51.8 °F 60% 30.04 in 5.0 mi NNW 13.8 mph - N/A   Widespread Dust